Regional Weather Roundup
Issued by NWS

Home | Current Version | Previous Version | Graphics & Text | Print | Product List | Glossary On
Versions: 1 2 3 4 5 6 7 8 9 10 11 12 13 14 15 16 17 18 19 20 21 22 23 24 25 26 27 28 29 30 31 32 33 34 35 36 37 38 39 40 41 42 43 44 45 46 47 48 49 50
044
ASUS44 KLIX 200201
RWRLA
LOUISIANA WEATHER ROUNDUP
NATIONAL WEATHER SERVICE NEW ORLEANS LA
900 PM CDT TUE AUG 19 2014

NOTE: "FAIR" INDICATES FEW OR NO CLOUDS BELOW 12,000 FEET WITH NO
      SIGNIFICANT WEATHER AND/OR OBSTRUCTIONS TO VISIBILITY.
      SKY/WX - SKY CONDITION AND SIGNIFICANT WEATHER.
      TMP - AIR TEMPERATURE.    DP   - DEWPOINT TEMPERATURE.
      RH  - RELATIVE HUMIDITY.  PRES - PRESSURE.
      HX  - HEAT INDEX.         WCI  - WIND CHILL INDEX.

*  THESE STATIONS ARE NOT NWS OR FAA STATIONS AND ARE NOT UNDER
   NWS QUALITY CONTROL.

LAZ040-048-061>063-065-066-069-200300-
SOUTHEAST LOUISIANA

CITY           SKY/WX    TMP DP  RH WIND       PRES   REMARKS
N.O. AUDUBON     N/A     84  77  80 MISG        N/A
N.O. INTL ARPT MOCLDY    82  74  76 W3        29.96R
N.O. LAKEFRONT MOCLDY    85  74  69 SW7       29.97R
N.O. DOWNTOWN* FAIR      88  72  58 SW3       29.98R
SLIDELL        MOCLDY    79  74  84 CALM      29.96R
BATON ROUGE    CLOUDY    78  70  76 CALM      29.97R
BOOTHVILLE     CLEAR     85  76  74 SW9       29.98R
BELLE CHASSE   MOCLDY    80  75  84 CALM      29.96R
BOGALUSA*      FAIR      80  74  84 CALM      29.98R
GALLIANO*      NOT AVBL
NEW ROADS*     FAIR      75  73  93 SE3       29.96S
GONZALES*      FAIR      78  77  98 CALM      29.96R
HAMMOND*       NOT AVBL
HOUMA*         MOCLDY    81  72  74 CALM      29.97R
PORT FOURCHON* CLEAR     86  75  70 S5        29.98S HX  95

$$

LAZ041-044-053-054-200300-
SOUTHWEST LOUISIANA

CITY           SKY/WX    TMP DP  RH WIND       PRES   REMARKS
LAKE CHARLES   CLOUDY    76  74  93 CALM      29.95S
LAFAYETTE      CLOUDY    76  74  93 SW3       29.96R
PATTERSON      MOCLDY   N/A N/A N/A MISG        N/A
SALT POINT       N/A     83  76  79 CALM      29.96R
NEW IBERIA     CLOUDY    76  73  91 CALM      29.96R
CHENAULT AIRPK CLEAR     75  73  94 CALM      29.96

$$

LAZ027-028-200300-
CENTRAL LOUISIANA

CITY           SKY/WX    TMP DP  RH WIND       PRES   REMARKS
FORT POLK      NOT AVBL
ALEXANDRIA INT CLOUDY    78  73  84 CALM      29.93S
ALEXANDRIA     CLOUDY    77  74  90 CALM      29.95S

$$

LAZ001-002-200300-
NORTHWEST LOUISIANA

CITY           SKY/WX    TMP DP  RH WIND       PRES   REMARKS
SHREVEPORT     CLOUDY    77  68  73 S3        29.91S
BARKSDALE AFB  CLOUDY    80  67  63 SW3       29.92R
DTN SHREVEPORT CLOUDY    80  65  59 SW6       29.92R

$$

LAZ014-016-200300-
NORTHEAST LOUISIANA

CITY           SKY/WX    TMP DP  RH WIND       PRES   REMARKS
MONROE         MOCLDY    83  72  69 SW10      29.92S
TALLULAH       MOCLDY    80  76  87 S3        29.92R

$$




USA.gov is the U.S. government's official web portal to all federal, state and local government web resources and services.